Terminal Aerodrome Forecast
Issued by NWS Honolulu, HI

Home | Current Version | Previous Version | Text Only | Print | Product List | Glossary On
Versions: 1 2 3 4 5 6 7 8 9 10 11 12 13 14 15 16 17 18 19 20 21 22 23 24 25 26 27 28 29 30 31 32 33 34 35 36 37 38 39 40 41 42 43 44 45 46 47 48 49
000
FTPA31 PHFO 190800 AAA
TAFHNL
TAF AMD
PHNL 190843Z 1909/2012 05007KT P6SM FEW027 SCT045
     FM192000 05017G23KT P6SM FEW027 SCT045
     FM200500 05012KT P6SM FEW027 SCT045=

USA.gov is the U.S. government's official web portal to all federal, state and local government web resources and services.